Location: Newark
(13.6797°N, 8.5297°E)
Time: 20:14:53
(UTC+00:00)

Courier 1B Rocket - Pass Details

Date: 23 January 2020
Orbit: 920 x 1202 km, 28.2° (Epoch: 27 February)

Event Time Altitude Azimuth Distance (km) Brightness Sun altitude
Rises 18:33:09 0° 290° (WNW) 3,551 8.8 -17.4°
Reaches altitude 10° 18:35:48 10° 285° (WNW) 2,602 8.1 -18.0°
Maximum altitude 18:41:50 54° 209° (SSW) 1,107 5.5 -19.4°
Enters shadow 18:47:39 12° 134° (SE) 2,527 6.9 -20.7°
